When you browse on this site, cookies collect data to enhance your experience and personalize the content and advertising you see.
Visit our Privacy Policy to learn more. By continuing to use the site, you agree to this use of cookies and data.
  • Em Portugal
  • Lista de países
  • Para 7 dias
  • Temperatura da água
  • Mapas de satélite
  • Mapa do tempo
  • Widgets de tempo
  • user-avatar
    Iniciar Sessão

    Previsão horária em Khmelnik

    Hoje, 18 Junho, Terça-feira

    Tempo Temperatura Precipitação Vento Pressão Humidade
    00:00 +19°C° 0 mm 4 m/s 738 mmHg 94%
    01:00 +18°C° 0 mm 3 m/s 738 mmHg 95%
    02:00 +17°C° 0 mm 3 m/s 738 mmHg 96%
    03:00 +17°C° 0 mm 3 m/s 738 mmHg 97%
    04:00 +16°C° 0 mm 3 m/s 738 mmHg 97%
    05:00 +16°C° 0 mm 3 m/s 738 mmHg 97%
    06:00 +17°C° 0 mm 3 m/s 739 mmHg 93%
    07:00 +18°C° 0 mm 3 m/s 739 mmHg 90%
    08:00 +19°C° 0 mm 3 m/s 739 mmHg 86%
    09:00 +21°C° 0 mm 3 m/s 739 mmHg 82%
    10:00 +22°C° 0 mm 3 m/s 739 mmHg 78%
    11:00 +24°C° 0 mm 3 m/s 739 mmHg 74%
    12:00 +24°C° 0 mm 3 m/s 739 mmHg 72%
    13:00 +25°C° 0 mm 3 m/s 739 mmHg 70%
    14:00 +26°C° 0 mm 3 m/s 739 mmHg 68%
    15:00 +25°C° 0 mm 3 m/s 739 mmHg 71%
    16:00 +25°C° 0 mm 3 m/s 738 mmHg 73%
    17:00 +25°C° 0 mm 3 m/s 738 mmHg 76%
    18:00 +24°C° 0 mm 3 m/s 738 mmHg 80%
    19:00 +21°C° 0 mm 2 m/s 738 mmHg 85%
    20:00 +20°C° 0 mm 2 m/s 738 mmHg 90%
    21:00 +20°C° 0 mm 1 m/s 738 mmHg 90%
    22:00 +20°C° 0 mm 1 m/s 738 mmHg 91%
    23:00 +19°C° 0 mm 1 m/s 738 mmHg 92%

    Amanhã, 19 Junho, Quarta-feira

    Tempo Temperatura Precipitação Vento Pressão Humidade
    00:00 +18°C° 0 mm 2 m/s 738 mmHg 93%
    01:00 +18°C° 0 mm 2 m/s 738 mmHg 94%
    02:00 +17°C° 0 mm 2 m/s 738 mmHg 94%
    03:00 +17°C° 0 mm 2 m/s 738 mmHg 95%
    04:00 +17°C° 0 mm 2 m/s 738 mmHg 95%
    05:00 +17°C° 0 mm 2 m/s 738 mmHg 95%
    06:00 +19°C° 0 mm 2 m/s 738 mmHg 91%
    07:00 +20°C° 0 mm 2 m/s 738 mmHg 86%
    08:00 +23°C° 0 mm 2 m/s 738 mmHg 82%
    09:00 +24°C° 0 mm 3 m/s 738 mmHg 78%
    10:00 +25°C° 0 mm 3 m/s 738 mmHg 73%
    11:00 +26°C° 0 mm 3 m/s 738 mmHg 69%
    12:00 +26°C° 0 mm 3 m/s 738 mmHg 68%
    13:00 +26°C° 0 mm 3 m/s 738 mmHg 68%
    14:00 +26°C° 0 mm 3 m/s 738 mmHg 67%
    15:00 +26°C° 0 mm 3 m/s 737 mmHg 68%
    16:00 +26°C° 0 mm 2 m/s 737 mmHg 69%
    17:00 +26°C° 0 mm 2 m/s 737 mmHg 70%
    18:00 +25°C° 0 mm 2 m/s 737 mmHg 75%
    19:00 +23°C° 0 mm 2 m/s 737 mmHg 79%
    20:00 +21°C° 0 mm 2 m/s 736 mmHg 83%
    21:00 +20°C° 0 mm 2 m/s 737 mmHg 86%
    22:00 +20°C° 0 mm 2 m/s 737 mmHg 88%
    23:00 +19°C° 0 mm 2 m/s 737 mmHg 90%

    Depois de amanhã, 20 Junho, Quinta-feira

    Tempo Temperatura Precipitação Vento Pressão Humidade
    00:00 +19°C° 0 mm 2 m/s 736 mmHg 91%
    01:00 +18°C° 0 mm 2 m/s 736 mmHg 92%
    02:00 +18°C° 0 mm 2 m/s 736 mmHg 93%
    03:00 +18°C° 0 mm 2 m/s 736 mmHg 94%
    04:00 +18°C° 0 mm 2 m/s 736 mmHg 94%
    05:00 +18°C° 0 mm 2 m/s 736 mmHg 95%
    06:00 +20°C° 0 mm 2 m/s 736 mmHg 91%
    07:00 +21°C° 0 mm 2 m/s 736 mmHg 87%
    08:00 +24°C° 0 mm 3 m/s 736 mmHg 83%
    09:00 +25°C° 0 mm 3 m/s 736 mmHg 78%
    10:00 +26°C° 0 mm 3 m/s 737 mmHg 73%
    11:00 +27°C° 0 mm 3 m/s 737 mmHg 68%
    12:00 +27°C° 0 mm 3 m/s 736 mmHg 66%
    13:00 +28°C° 0 mm 3 m/s 736 mmHg 64%
    14:00 +28°C° 0 mm 2 m/s 736 mmHg 62%
    15:00 +28°C° 0.1 mm 3 m/s 736 mmHg 66%
    16:00 +27°C° 0.1 mm 3 m/s 736 mmHg 70%
    17:00 +27°C° 0.1 mm 3 m/s 735 mmHg 73%
    18:00 +26°C° 0.4 mm 3 m/s 735 mmHg 78%
    19:00 +24°C° 0.4 mm 3 m/s 736 mmHg 83%
    20:00 +22°C° 0.4 mm 3 m/s 736 mmHg 88%
    21:00 +21°C° 0 mm 2 m/s 736 mmHg 90%
    22:00 +20°C° 0 mm 2 m/s 736 mmHg 92%
    23:00 +20°C° 0 mm 2 m/s 736 mmHg 93%

    21 Junho, Sexta-feira

    Tempo Temperatura Precipitação Vento Pressão Humidade
    00:00 +19°C° 0 mm 2 m/s 736 mmHg 94%
    01:00 +19°C° 0 mm 2 m/s 736 mmHg 94%
    02:00 +19°C° 0 mm 2 m/s 736 mmHg 95%
    03:00 +19°C° 0 mm 2 m/s 736 mmHg 95%
    04:00 +19°C° 0 mm 2 m/s 736 mmHg 95%
    05:00 +19°C° 0 mm 2 m/s 736 mmHg 95%
    06:00 +20°C° 0 mm 2 m/s 736 mmHg 92%
    07:00 +23°C° 0 mm 2 m/s 736 mmHg 88%
    08:00 +24°C° 0 mm 3 m/s 737 mmHg 85%
    09:00 +26°C° 0.3 mm 3 m/s 737 mmHg 79%
    10:00 +27°C° 0.3 mm 3 m/s 737 mmHg 74%
    11:00 +28°C° 0.3 mm 3 m/s 737 mmHg 68%
    12:00 +29°C° 0.4 mm 3 m/s 737 mmHg 68%
    13:00 +29°C° 0.4 mm 3 m/s 736 mmHg 68%
    14:00 +29°C° 0.4 mm 3 m/s 736 mmHg 67%
    15:00 +28°C° 1.3 mm 3 m/s 736 mmHg 72%
    16:00 +28°C° 1.3 mm 3 m/s 736 mmHg 76%
    17:00 +27°C° 1.3 mm 3 m/s 736 mmHg 80%
    18:00 +26°C° 0.3 mm 3 m/s 736 mmHg 83%
    19:00 +25°C° 0.3 mm 3 m/s 736 mmHg 85%
    20:00 +24°C° 0.3 mm 3 m/s 736 mmHg 88%
    21:00 +22°C° 0 mm 3 m/s 736 mmHg 88%
    22:00 +21°C° 0 mm 3 m/s 736 mmHg 89%
    23:00 +20°C° 0 mm 3 m/s 736 mmHg 89%

    22 Junho, Sábado

    Tempo Temperatura Precipitação Vento Pressão Humidade
    00:00 +20°C° 0.2 mm 3 m/s 736 mmHg 89%
    01:00 +20°C° 0.2 mm 3 m/s 736 mmHg 89%
    02:00 +19°C° 0.2 mm 3 m/s 736 mmHg 89%
    03:00 +19°C° 0.1 mm 3 m/s 736 mmHg 88%
    04:00 +19°C° 0.1 mm 3 m/s 736 mmHg 88%
    05:00 +19°C° 0.1 mm 3 m/s 736 mmHg 87%
    06:00 +20°C° 0.2 mm 3 m/s 736 mmHg 84%
    07:00 +22°C° 0.2 mm 3 m/s 736 mmHg 81%
    08:00 +25°C° 0.2 mm 3 m/s 737 mmHg 77%
    09:00 +26°C° 0.6 mm 3 m/s 737 mmHg 74%
    10:00 +27°C° 0.6 mm 4 m/s 737 mmHg 70%
    11:00 +29°C° 0.6 mm 4 m/s 737 mmHg 67%
    12:00 +29°C° 0.5 mm 4 m/s 737 mmHg 66%
    13:00 +29°C° 0.5 mm 4 m/s 737 mmHg 64%
    14:00 +29°C° 0.5 mm 4 m/s 737 mmHg 63%
    15:00 +29°C° 1.1 mm 4 m/s 736 mmHg 66%
    16:00 +29°C° 1.1 mm 3 m/s 736 mmHg 70%
    17:00 +28°C° 1.1 mm 2 m/s 736 mmHg 73%
    18:00 +27°C° 0.3 mm 2 m/s 736 mmHg 76%
    19:00 +25°C° 0.3 mm 2 m/s 736 mmHg 78%
    20:00 +24°C° 0.3 mm 2 m/s 736 mmHg 81%
    21:00 +23°C° 1.1 mm 2 m/s 736 mmHg 84%
    22:00 +21°C° 1.1 mm 2 m/s 737 mmHg 87%
    23:00 +20°C° 1.1 mm 3 m/s 737 mmHg 91%

    23 Junho, Domingo

    Tempo Temperatura Precipitação Vento Pressão Humidade
    00:00 +20°C° 0.8 mm 2 m/s 737 mmHg 92%
    01:00 +19°C° 0.8 mm 2 m/s 737 mmHg 93%
    02:00 +20°C° 0.8 mm 1 m/s 737 mmHg 94%
    03:00 +20°C° 0 mm 1 m/s 737 mmHg 94%
    04:00 +20°C° 0 mm 1 m/s 736 mmHg 94%
    05:00 +20°C° 0 mm 1 m/s 736 mmHg 94%
    06:00 +21°C° 0.2 mm 1 m/s 737 mmHg 90%
    07:00 +22°C° 0.2 mm 1 m/s 737 mmHg 87%
    08:00 +23°C° 0.2 mm 1 m/s 737 mmHg 84%
    09:00 +24°C° 0.9 mm 1 m/s 737 mmHg 83%
    10:00 +24°C° 0.9 mm 1 m/s 737 mmHg 82%
    11:00 +24°C° 0.9 mm 1 m/s 737 mmHg 81%
    12:00 +25°C° 1 mm 1 m/s 737 mmHg 79%
    13:00 +25°C° 1 mm 2 m/s 737 mmHg 76%
    14:00 +26°C° 1 mm 2 m/s 737 mmHg 74%
    15:00 +26°C° 1.3 mm 2 m/s 737 mmHg 75%
    16:00 +26°C° 1.3 mm 1 m/s 736 mmHg 76%
    17:00 +26°C° 1.3 mm 1 m/s 736 mmHg 76%
    18:00 +24°C° 0.4 mm 1 m/s 736 mmHg 81%
    19:00 +23°C° 0.4 mm 1 m/s 736 mmHg 85%
    20:00 +22°C° 0.4 mm 1 m/s 736 mmHg 89%
    21:00 +21°C° 0.1 mm 2 m/s 736 mmHg 90%
    22:00 +20°C° 0.1 mm 2 m/s 736 mmHg 91%
    23:00 +19°C° 0.1 mm 2 m/s 737 mmHg 93%
    Mostrar mais